Location: OHP
(43.9325°N, 5.7154°E)
Time: 05:36:47
(UTC+01:00)

ISS - Visible Passes

Search period start: 25 June 2021 00:00
Search period end: 05 July 2021 00:00
Orbit: 419 x 422 km, 51.6° (Epoch: 24 June)

Date Brightness Start Highest point End Pass type
(mag) Time Alt. Az. Time Alt. Az. Time Alt. Az.
26 Jun -1.4 04:00:31 10° S 04:02:37 16° SE 04:04:45 10° E visible
28 Jun -3.0 04:01:13 11° SSW 04:04:12 41° SE 04:07:24 10° ENE visible
29 Jun -2.2 03:15:23 20° S 03:16:41 25° SE 03:19:31 10° E visible
30 Jun -1.6 02:29:24 16° SE 02:29:24 16° SE 02:31:13 10° E visible
30 Jun -3.7 04:02:20 11° WSW 04:05:33 76° NNW 04:08:54 10° NE visible
01 Jul -3.7 03:16:11 29° SW 03:17:42 68° SE 03:21:03 10° ENE visible
02 Jul -3.1 02:29:53 40° SE 02:29:53 40° SE 02:33:00 10° ENE visible
02 Jul -2.5 04:03:28 10° W 04:06:37 37° NNW 04:09:47 10° NE visible
03 Jul -1.5 01:43:27 17° E 01:43:27 17° E 01:44:40 10° E visible
03 Jul -3.1 03:16:21 19° W 03:18:28 51° NNW 03:21:46 10° NE visible
04 Jul -3.8 02:29:45 60° W 02:30:15 78° NNW 02:33:37 10° ENE visible
04 Jul -1.7 04:04:33 10° WNW 04:07:23 25° NNW 04:10:15 10° NE visible
